Terminal Aerodrome Forecast
Issued by NWS Boston, MA

Home | Current Version | Previous Version | Text Only | Print | Product List | Glossary On
Versions: 1 2 3 4 5 6 7 8 9 10 11 12 13 14 15 16 17 18 19 20 21 22 23 24 25 26 27 28 29 30 31 32 33 34 35 36 37 38 39 40 41 42 43 44 45 46 47
000
FTUS41 KBOX 210839 AAA
TAFBDL
TAF AMD
KBDL 210839Z 2109/2212 36004KT 1SM SHRA BR BKN008 OVC020
     FM211200 17005KT 3SM -SHRA BR OVC010
     FM211500 17006KT P6SM BKN030
     FM211800 18006KT P6SM BKN100
     FM220600 25004KT 3SM BR BKN250=

USA.gov is the U.S. government's official web portal to all federal, state and local government web resources and services.